Location: Rio Negrinho
(26.2394°S, 49.4999°W)
Time: 00:37:26
(UTC+00:00)

SEDSat Delta rocket - Pass Details

Date: 07 June 2020
Orbit: 533 x 1000 km, 31.4° (Epoch: 13 July)

Event Time Altitude Azimuth Distance (km) Brightness Sun altitude
Exits shadow 09:14:49 13° 260° (W) 1,829 4.8 -10.3°
Maximum altitude 09:18:50 55° 335° (NNW) 721 3.4 -9.5°
Drops below altitude 10° 09:22:58 10° 53° (NE) 1,840 6.9 -8.6°
Sets 09:25:10 0° 57° (ENE) 2,697 8.4 -8.2°
